Time,TemperatureF,DewpointF,PressureIn,WindDirection,WindDirectionDegrees,WindSpeedMPH,WindSpeedGustMPH,Humidity,HourlyPrecipIn,Conditions,Clouds,dailyrainin,SolarRadiationWatts/m^2,SoftwareType,DateUTC
2013-08-05 00:00:00,72.0,56.0,-100.00,North,9,3.0,9.0,57,-99.99,,,0.00,0.000000,,2013-08-05 07:00:00,
2013-08-05 00:43:00,72.0,56.0,-100.00,North,9,3.0,9.0,57,-99.99,,,0.00,0.000000,,2013-08-05 07:43:00,
2013-08-05 00:53:00,72.0,56.0,-100.00,North,9,3.0,9.0,57,-99.99,,,0.00,0.000000,,2013-08-05 07:53:00,
2013-08-05 01:00:00,72.0,54.0,-100.00,North,354,8.0,15.0,53,-99.99,,,0.00,0.000000,,2013-08-05 08:00:00,
2013-08-05 01:53:00,72.0,54.0,-100.00,North,354,8.0,15.0,53,-99.99,,,0.00,0.000000,,2013-08-05 08:53:00,
2013-08-05 02:00:00,68.0,56.0,-100.00,WNW,287,4.0,8.0,66,-99.99,,,0.00,0.000000,,2013-08-05 09:00:00,
2013-08-05 02:45:00,68.0,56.0,-100.00,WNW,287,4.0,8.0,66,-99.99,,,0.00,0.000000,,2013-08-05 09:45:00,
2013-08-05 02:53:00,68.0,56.0,-100.00,WNW,287,4.0,8.0,66,-99.99,,,0.00,0.000000,,2013-08-05 09:53:00,
2013-08-05 03:00:00,67.0,57.0,-100.00,NE,43,2.0,4.0,71,-99.99,,,0.00,0.000000,,2013-08-05 10:00:00,
2013-08-05 03:45:00,67.0,57.0,-100.00,NE,43,2.0,4.0,71,-99.99,,,0.00,0.000000,,2013-08-05 10:45:00,
2013-08-05 03:53:00,67.0,57.0,-100.00,NE,43,2.0,4.0,71,-99.99,,,0.00,0.000000,,2013-08-05 10:53:00,
2013-08-05 04:00:00,66.0,58.0,-100.00,WSW,240,2.0,5.0,75,-99.99,,,0.00,0.000000,,2013-08-05 11:00:00,
2013-08-05 04:58:00,66.0,58.0,-100.00,WSW,240,2.0,5.0,75,-99.99,,,0.00,0.000000,,2013-08-05 11:58:00,
2013-08-05 05:00:00,65.0,57.0,-100.00,WNW,286,1.0,2.0,75,-99.99,,,0.00,0.000000,,2013-08-05 12:00:00,
2013-08-05 05:45:00,65.0,57.0,-100.00,WNW,286,1.0,2.0,75,-99.99,,,0.00,0.000000,,2013-08-05 12:45:00,
2013-08-05 05:58:00,65.0,57.0,-100.00,WNW,286,1.0,2.0,75,-99.99,,,0.00,0.000000,,2013-08-05 12:58:00,
2013-08-05 06:43:00,64.0,57.0,-100.00,West,272,2.0,4.0,77,-99.99,,,0.00,7.670000,,2013-08-05 13:43:00,
2013-08-05 06:54:00,64.0,57.0,-100.00,West,272,2.0,4.0,77,-99.99,,,0.00,7.670000,,2013-08-05 13:54:00,
2013-08-05 07:00:00,65.0,57.0,-100.00,WSW,245,2.0,4.0,75,-99.99,,,0.00,151.429993,,2013-08-05 14:00:00,
2013-08-05 07:44:00,65.0,57.0,-100.00,WSW,245,2.0,4.0,75,-99.99,,,0.00,151.429993,,2013-08-05 14:44:00,
2013-08-05 07:54:00,65.0,57.0,-100.00,WSW,245,2.0,4.0,75,-99.99,,,0.00,151.429993,,2013-08-05 14:54:00,
2013-08-05 08:58:00,68.0,58.0,-100.00,SE,136,2.0,4.0,69,-99.99,,,0.00,317.859985,,2013-08-05 15:58:00,
2013-08-05 09:00:00,71.0,59.0,-100.00,ESE,117,2.0,4.0,65,-99.99,,,0.00,485.220001,,2013-08-05 16:00:00,
2013-08-05 09:59:00,71.0,59.0,-100.00,ESE,117,2.0,4.0,65,-99.99,,,0.00,485.220001,,2013-08-05 16:59:00,
2013-08-05 10:00:00,73.0,58.0,-100.00,ESE,118,2.0,4.0,61,-99.99,,,0.00,637.469971,,2013-08-05 17:00:00,
2013-08-05 10:45:00,73.0,58.0,-100.00,ESE,118,2.0,4.0,61,-99.99,,,0.00,637.469971,,2013-08-05 17:45:00,
2013-08-05 10:59:00,73.0,58.0,-100.00,ESE,118,2.0,4.0,61,-99.99,,,0.00,637.469971,,2013-08-05 17:59:00,
2013-08-05 11:00:00,76.0,59.0,-100.00,SE,129,2.0,4.0,55,-99.99,,,0.00,761.590027,,2013-08-05 18:00:00,
2013-08-05 11:44:00,76.0,59.0,-100.00,SE,129,2.0,4.0,55,-99.99,,,0.00,761.590027,,2013-08-05 18:44:00,
2013-08-05 11:54:00,76.0,59.0,-100.00,SE,129,2.0,4.0,55,-99.99,,,0.00,761.590027,,2013-08-05 18:54:00,
2013-08-05 12:47:00,80.0,62.0,-100.00,ESE,113,2.0,4.0,53,-99.99,,,0.00,845.380005,,2013-08-05 19:47:00,
2013-08-05 12:56:00,80.0,62.0,-100.00,ESE,113,2.0,4.0,53,-99.99,,,0.00,845.380005,,2013-08-05 19:56:00,
2013-08-05 13:00:00,83.0,60.0,-100.00,SW,216,2.0,3.0,45,-99.99,,,0.00,877.340027,,2013-08-05 20:00:00,
2013-08-05 13:46:00,83.0,60.0,-100.00,SW,216,2.0,3.0,45,-99.99,,,0.00,877.340027,,2013-08-05 20:46:00,
2013-08-05 13:59:00,83.0,60.0,-100.00,SW,216,2.0,3.0,45,-99.99,,,0.00,877.340027,,2013-08-05 20:59:00,
2013-08-05 14:00:00,88.0,50.0,-100.00,SSE,167,2.0,3.0,28,-99.99,,,0.00,867.700012,,2013-08-05 21:00:00,
2013-08-05 14:45:00,88.0,50.0,-100.00,SSE,167,2.0,3.0,28,-99.99,,,0.00,867.700012,,2013-08-05 21:45:00,
2013-08-05 14:53:00,88.0,50.0,-100.00,SSE,167,2.0,3.0,28,-99.99,,,0.00,867.700012,,2013-08-05 21:53:00,
2013-08-05 15:00:00,90.0,49.0,-100.00,WSW,249,3.0,7.0,24,-99.99,,,0.00,804.940002,,2013-08-05 22:00:00,
2013-08-05 15:43:00,90.0,49.0,-100.00,WSW,249,3.0,7.0,24,-99.99,,,0.00,804.940002,,2013-08-05 22:43:00,
2013-08-05 15:53:00,90.0,49.0,-100.00,WSW,249,3.0,7.0,24,-99.99,,,0.00,804.940002,,2013-08-05 22:53:00,
2013-08-05 16:00:00,91.0,51.0,-100.00,SW,234,4.0,9.0,25,-99.99,,,0.00,689.770020,,2013-08-05 23:00:00,
2013-08-05 16:59:00,91.0,51.0,-100.00,SW,234,4.0,9.0,25,-99.99,,,0.00,689.770020,,2013-08-05 23:59:00,
2013-08-05 17:00:00,92.0,47.0,-100.00,West,267,4.0,8.0,21,-99.99,,,0.00,595.400024,,2013-08-06 00:00:00,
2013-08-05 17:45:00,92.0,47.0,-100.00,West,267,4.0,8.0,21,-99.99,,,0.00,595.400024,,2013-08-06 00:45:00,
2013-08-05 17:57:00,92.0,47.0,-100.00,West,267,4.0,8.0,21,-99.99,,,0.00,595.400024,,2013-08-06 00:57:00,
2013-08-05 18:46:00,92.0,37.0,-100.00,North,9,4.0,11.0,14,-99.99,,,0.00,380.390015,,2013-08-06 01:46:00,
2013-08-05 18:59:00,92.0,37.0,-100.00,North,9,4.0,11.0,14,-99.99,,,0.00,380.390015,,2013-08-06 01:59:00,
2013-08-05 19:00:00,91.0,40.0,-100.00,NNW,338,5.0,10.0,17,-99.99,,,0.00,197.690002,,2013-08-06 02:00:00,
2013-08-05 19:52:00,91.0,40.0,-100.00,NNW,338,5.0,10.0,17,-99.99,,,0.00,197.690002,,2013-08-06 02:52:00,
2013-08-05 20:00:00,87.0,42.0,-100.00,NW,312,3.0,7.0,20,-99.99,,,0.00,26.379999,,2013-08-06 03:00:00,
2013-08-05 20:45:00,87.0,42.0,-100.00,NW,312,3.0,7.0,20,-99.99,,,0.00,26.379999,,2013-08-06 03:45:00,
2013-08-05 20:52:00,87.0,42.0,-100.00,NW,312,3.0,7.0,20,-99.99,,,0.00,26.379999,,2013-08-06 03:52:00,
2013-08-05 21:00:00,87.0,42.0,-100.00,North,2,8.0,13.0,20,-99.99,,,0.00,0.120000,,2013-08-06 04:00:00,
2013-08-05 21:44:00,87.0,42.0,-100.00,North,2,8.0,13.0,20,-99.99,,,0.00,0.120000,,2013-08-06 04:44:00,
2013-08-05 21:53:00,87.0,42.0,-100.00,North,2,8.0,13.0,20,-99.99,,,0.00,0.120000,,2013-08-06 04:53:00,
2013-08-05 22:00:00,79.0,50.0,-100.00,SSW,202,1.0,3.0,36,-99.99,,,0.00,0.000000,,2013-08-06 05:00:00,
2013-08-05 22:43:00,79.0,50.0,-100.00,SSW,202,1.0,3.0,36,-99.99,,,0.00,0.000000,,2013-08-06 05:43:00,
2013-08-05 22:53:00,79.0,50.0,-100.00,SSW,202,1.0,3.0,36,-99.99,,,0.00,0.000000,,2013-08-06 05:53:00,
2013-08-05 23:00:00,79.0,53.0,-100.00,ESE,117,1.0,3.0,39,-99.99,,,0.00,0.000000,,2013-08-06 06:00:00,
2013-08-05 23:43:00,79.0,53.0,-100.00,ESE,117,1.0,3.0,39,-99.99,,,0.00,0.000000,,2013-08-06 06:43:00,
2013-08-05 23:52:00,79.0,53.0,-100.00,ESE,117,1.0,3.0,39,-99.99,,,0.00,0.000000,,2013-08-06 06:52:00,